Regional Weather Roundup
Issued by NWS Grand Forks, ND

Home | Current Version | Previous Version | Graphics & Text | Print | Product List | Glossary On
Versions: 1 2 3 4 5 6 7 8 9 10 11 12 13 14 15 16 17 18 19 20 21 22 23 24 25 26 27 28 29 30 31 32 33 34 35 36 37 38 39 40 41 42 43 44 45 46 47 48 49 50
000
ASUS43 KFGF 180031
RWRFGF
PRAIRIE TO PINES  WEATHER ROUNDUP
NATIONAL WEATHER SERVICE EASTERN NORTH DAKOTA/GRAND FORKS ND
700 PM CDT THU APR 17 2014

 **SATELLITE DATA USED TO AUGMENT SKY COVER AT AUTOMATED STATIONS**
 *****  WEATHER ACROSS EASTERN NORTH DAKOTA  *****

CITY           SKY/WX    TMP DP  RH WIND       PRES   REMARKS
GRAND FORKS    PTSUNNY   39  13  34 E6        30.29F
6HR MIN TEMP:  38; 6HR MAX TEMP:  43;

GRAND FRKS AFB PTSUNNY   39  10  30 NE8       30.29F
GRAND FRKS NWS   N/A     37 N/A N/A NE3         N/A
DEVILS LAKE    CLOUDY    39  12  33 E10       30.23F
6HR MIN TEMP:  36; 6HR MAX TEMP:  39;

FARGO          SUNNY     44  13  28 NW7       30.27S
WAHPETON ARPT  CLEAR     41  12  30 NE3       30.28R
$$

 ***** WEATHER ACROSS CENTRAL AND WESTERN NORTH DAKOTA  *****

CITY           SKY/WX    TMP DP  RH WIND       PRES   REMARKS
BISMARCK       CLOUDY    45  20  36 S16       30.15F
6HR MIN TEMP:  40; 6HR MAX TEMP:  48;

MINOT          CLOUDY    41  18  39 E14       30.13F
6HR MIN TEMP:  37; 6HR MAX TEMP:  42;

JAMESTOWN      CLOUDY    43  15  32 E6        30.21S
6HR MIN TEMP:  38; 6HR MAX TEMP:  45;

MINOT AFB      CLOUDY    40  21  46 E14       30.13F
GARRISON         N/A     42  23  46 SE12      30.11F
WILLISTON      MOSUNNY   44  28  53 S15       30.04S
6HR MIN TEMP:  38; 6HR MAX TEMP:  47;

DICKINSON      PTSUNNY   43  27  53 SE16      30.02F
6HR MIN TEMP:  35; 6HR MAX TEMP:  45;

HETTINGER      PTSUNNY   46  28  49 SE15G23   30.03F
6HR MIN TEMP:  31; 6HR MAX TEMP:  47;

$$

 *****  OTHER AIRPORT OBSERVATIONS IN OUR AREA  *****

CITY           SKY/WX    TMP DP  RH WIND       PRES   REMARKS
WALHALLA         N/A     37   7  28 E5        30.29S
GRAFTON AIRPOR FAIR      36  10  35 MISG      30.30S
VALLEY CITY AR NOT AVBL
CANDO          CLOUDY    37  10  32 SE9       30.23F
CAVALIER APRT  FAIR      37  10  32 E5        30.30S
GWINNER        PTCLDY    45  14  29 SE3       30.25F
SHEYENNE NWR     N/A     51  15  23 CALM      29.95S
ROLLA          MOCLDY    36  14  41 SE10      30.22S
 ***** THE ABOVE OBSERVATIONS ARE NON NWS ARE NOT QUALITY
       CONTROLLED AND MAY MIS-REPORT RAIN FOR SNOW...
$$

  *****  WEATHER ACROSS NORTHERN MINNESOTA  *****

CITY           SKY/WX    TMP DP  RH WIND       PRES   REMARKS
FLAG ISLAND    SUNNY     36   5  27 CALM      30.27S
WARROAD        SUNNY     36   9  32 CALM      30.29S
ROSEAU         SUNNY     39   9  28 SE5       30.28S
HALLOCK        CLOUDY    37  12  35 NW7       30.29S
THF RVR FALLS  PTSUNNY   39  10  30 CALM      30.28S
6HR MIN TEMP:  36; 6HR MAX TEMP:  41;

BAUDETTE       SUNNY     37   8  30 N8        30.27F
6HR MIN TEMP:  36; 6HR MAX TEMP:  39;

WASKISH        SUNNY     37  18  44 W3        30.26R
CROOKSTON      PTSUNNY   39  16  38 N6        30.29S
$$
  *****  WEATHER ACROSS CENTRAL AND WEST MINNESOTA  *****

CITY           SKY/WX    TMP DP  RH WIND       PRES   REMARKS
FOSSTON        PTSUNNY   39  10  30 NW5       30.27R
BEMIDJI        MOSUNNY   38   4  23 NE7       30.24S
PARK RAPIDS    SUNNY     43   1  17 W3        30.22S
6HR MIN TEMP:  39; 6HR MAX TEMP:  45;

ELBOW LAKE     FAIR      41  19  42 W3        30.26S
6HR MIN TEMP:  37; 6HR MAX TEMP:  43;

WADENA         SUNNY     39  18  41 W7        30.24R
DETROIT LAKES  SUNNY     41  14  33 NW5       30.26S
MOORHEAD       SUNNY     43  10  26 VRB2      30.28S
FERGUS FALLS   SUNNY     41  12  30 W8        30.24S
MORRIS MN      SUNNY     41  18  38 CALM      30.27S
STAPLES        SUNNY     43  12  28 W6        30.23S
$$
  *****  WEATHER ELSEWHERE ACROSS MINNESOTA  *****

CITY           SKY/WX    TMP DP  RH WIND       PRES   REMARKS
DULUTH         MOCLDY    35  20  54 N8        30.24S
6HR MIN TEMP:  34; 6HR MAX TEMP:  36;

INTRNTL FALLS  SUNNY     38  15  39 CALM      30.25F
6HR MIN TEMP:  36; 6HR MAX TEMP:  39;

ELY            CLOUDY    30  21  69 N3        30.25S
CLOQUET        CLEAR     36  21  55 N6        30.25S
WHEATON        SUNNY     45  21  39 SW5       30.29S
BRAINERD       SUNNY     48  17  29 CALM      30.24S
6HR MIN TEMP:  41; 6HR MAX TEMP:  49;

HIBBING        CLOUDY    35  21  56 N9        30.26S
6HR MIN TEMP:  35; 6HR MAX TEMP:  37;

ALEXANDRIA     SUNNY     40  15  36 W5        30.26F
6HR MIN TEMP:  35; 6HR MAX TEMP:  42;

SAINT CLOUD    SUNNY     41  21  44 CALM      30.27S
6HR MIN TEMP:  37; 6HR MAX TEMP:  44;

MINNEAPOLIS    PTCLDY    41  26  55 NW5       30.29S
6HR MIN TEMP:  34; 6HR MAX TEMP:  42;

$$

  *****  WEATHER ACROSS SOUTH DAKOTA  *****

CITY           SKY/WX    TMP DP  RH WIND       PRES   REMARKS
SIOUX FALLS    PTSUNNY   43  23  45 NE3       30.26F
6HR MIN TEMP:  37; 6HR MAX TEMP:  46;

BROOKINGS      NOT AVBL
WATERTOWN      SUNNY     39  16  39 VRB3      30.25F
6HR MIN TEMP:  35; 6HR MAX TEMP:  41;

HURON          CLOUDY    44  18  35 SE7       30.23F
6HR MIN TEMP:  37; 6HR MAX TEMP:  45;

SISSETON         N/A     42  19  39 SE5       30.26S
ABERDEEN       SUNNY     44  21  40 S12       30.24S
6HR MIN TEMP:  39; 6HR MAX TEMP:  47;

MITCHELL       CLOUDY    48  20  32 SE8       30.24F
PIERRE         CLOUDY    45  23  42 SE17      30.14F
6HR MIN TEMP:  39; 6HR MAX TEMP:  47;

MOBRIDGE       PTSUNNY   45  23  42 S17       30.13F
RAPID CITY     SUNNY     53  36  52 SE21G28   29.97F
6HR MIN TEMP:  46; 6HR MAX TEMP:  54;

$$

  *****  SOME WEATHER IN NEARBY STATES *****

CITY           SKY/WX    TMP DP  RH WIND       PRES   REMARKS
GLASGOW MT     PTSUNNY   56  30  37 SE14      29.84F
6HR MIN TEMP:  46; 6HR MAX TEMP:  57;

GREAT FALLS MT CLOUDY    56  32  40 SE8       29.73F
6HR MIN TEMP:  50; 6HR MAX TEMP:  60;

CHEYENNE WY    SUNNY     56  22  26 S15       29.99F
6HR MIN TEMP:  51; 6HR MAX TEMP:  57;

SCOTTSBLUFF NE SUNNY     59  36  42 SE23G29   29.97F
6HR MIN TEMP:  45; 6HR MAX TEMP:  60;

OMAHA NE       SUNNY     55  24  30 CALM      30.24F
6HR MIN TEMP:  44; 6HR MAX TEMP:  57;

DES MOINES IA  PTCLDY    55  28  35 NE5       30.25S
6HR MIN TEMP:  44; 6HR MAX TEMP:  55;

DAVENPORT IA   MOCLDY    53  34  48 W9        30.26R
6HR MIN TEMP:  49; 6HR MAX TEMP:  56;

CHICAGO IL     CLOUDY    57  36  45 W12       30.20S
6HR MIN TEMP:  57; 6HR MAX TEMP:  62;

EAU CLAIRE WI  CLOUDY    38  27  64 N6        30.27F
6HR MIN TEMP:  37; 6HR MAX TEMP:  42;

LA CROSSE WI   CLOUDY    40  29  64 NW7       30.28S
6HR MIN TEMP:  40; 6HR MAX TEMP:  43;

$$

  *****  SOME NATIONAL WEATHER *****

CITY           SKY/WX    TMP DP  RH WIND       PRES   REMARKS
LA GUARDIA NY  PTCLDY    42  29  59 SE6       30.65S
6HR MIN TEMP:  42; 6HR MAX TEMP:  47;

RALEIGH NC     PTCLDY    57  36  45 E7        30.44R
6HR MIN TEMP:  57; 6HR MAX TEMP:  64;

ATLANTA GA     CLOUDY    62  41  46 E8        30.31
6HR MIN TEMP:  59; 6HR MAX TEMP:  66;

NEW ORLEANS LA LGT RAIN  64  59  83 E12       30.13F
6HR MIN TEMP:  64; 6HR MAX TEMP:  66;

OKLAHOMA CITY  LGT RAIN  57  39  51 NE12      30.20S
6HR MIN TEMP:  57; 6HR MAX TEMP:  61; 6HR PCP: TRACE;

ALBUQUERQUE NM MOSUNNY   68  22  17 S7        30.08F
6HR MIN TEMP:  60; 6HR MAX TEMP:  69;

SALT LAKE CITY MOSUNNY   71  26  18 S17G23    29.87F
6HR MIN TEMP:  63; 6HR MAX TEMP:  71;

LOS ANGELES CA CLOUDY    64  52  64 W10       29.86F
6HR MIN TEMP:  63; 6HR MAX TEMP:  69;




USA.gov is the U.S. government's official web portal to all federal, state and local government web resources and services.